Weather History for Bentonville, AR

Change the Weather History Date:

Sunday, December 2, 2012

  Actual Average Record
Temperature  
Mean Temperature 68 °F -  
Max Temperature 75 °F 51 °F 75 °F (2012)
Min Temperature 62 °F 29 °F 8 °F (1985)
Cooling Degree Days 4    
Growing Degree Days 18 (Base 50)    
Moisture  
Dew Point 57 °F    
Average Humidity 70    
Maximum Humidity 83    
Minimum Humidity 50    
Precipitation  
Precipitation 0.00 in - - ()
Sea Level Pressure  
Sea Level Pressure 30.00 in    
Wind  
Wind Speed 11 mph (SSW)    
Max Wind Speed 17 mph    
Max Gust Speed 23 mph    
Visibility 10 miles    
Events      
Averages and records for this station are not official NWS values.
T = Trace of Precipitation, MM = Missing Value Source: NWS Daily Summary

Daily Weather History Graph

Daily Weather History Graph

Search for Another Location

Airport:

Trip Planner

Search our weather history database for the weather conditions in past years. The results will help you decide how hot, cold, wet, or windy it might be!

Date:

Astronomy

Dec. 02, 2012 Rise Set
Actual Time 7:11 AM CST 5:01 PM CST
Civil Twilight 6:42 AM CST 5:30 PM CST
Nautical Twilight 6:10 AM CST 6:01 PM CST
Astronomical Twilight 5:39 AM CST 6:33 PM CST
Moon 8:47 PM CST (12/2) 10:03 AM CST (12/2)
Length of Visible Light 10h 47m
Length of Day
9h 50m
Waning Gibbous, 85% of the Moon is Illuminated
Dec 2
Waning Gibbous
Dec 6
Last Quarter
Dec 13
New
Dec 19
First Quarter
Dec 28
Full

Hourly Weather History & Observations

Time (CST) Temp. Dew Point Humidity Pressure Visibility Wind Dir Wind Speed Gust Speed Precip Events Conditions
12:15 AM 64.4 °F 57.2 °F 77% 29.97 in 10.0 mi South 11.5 mph - N/A   Clear
12:36 AM 64.4 °F 57.2 °F 77% 29.97 in 10.0 mi South 10.4 mph 17.3 mph N/A   Clear
12:55 AM 64.4 °F 57.2 °F 77% 29.96 in 10.0 mi South 10.4 mph - N/A   Clear
1:15 AM 64.4 °F 57.2 °F 77% 29.97 in 10.0 mi South 10.4 mph 16.1 mph N/A   Clear
1:35 AM 64.4 °F 57.2 °F 77% 29.97 in 10.0 mi South 9.2 mph - N/A   Clear
1:55 AM 64.4 °F 57.2 °F 77% 29.97 in 10.0 mi South 9.2 mph - N/A   Clear
2:15 AM 64.4 °F 57.2 °F 77% 29.97 in 10.0 mi South 9.2 mph - N/A   Clear
3:15 AM 64.4 °F 57.2 °F 77% 29.99 in 10.0 mi SSW 8.1 mph - N/A   Clear
3:35 AM 64.4 °F 57.2 °F 77% 29.99 in 10.0 mi SSW 10.4 mph - N/A   Clear
4:15 AM 64.4 °F 57.2 °F 77% 29.98 in 10.0 mi SSW 8.1 mph - N/A   Clear
4:35 AM 64.4 °F 57.2 °F 77% 29.98 in 10.0 mi South 9.2 mph - N/A   Clear
4:55 AM 62.6 °F 57.2 °F 82% 29.99 in 10.0 mi SSW 6.9 mph - N/A   Clear
5:35 AM 62.6 °F 57.2 °F 82% 30.00 in 10.0 mi South 8.1 mph - N/A   Mostly Cloudy
5:55 AM 64.4 °F 57.2 °F 77% 30.00 in 10.0 mi SSW 8.1 mph - N/A   Mostly Cloudy
6:15 AM 62.6 °F 57.2 °F 82% 30.00 in 10.0 mi South 8.1 mph - N/A   Mostly Cloudy
6:35 AM 64.4 °F 57.2 °F 77% 30.01 in 10.0 mi SSW 9.2 mph - N/A   Overcast
6:55 AM 64.4 °F 59.0 °F 83% 30.02 in 10.0 mi South 8.1 mph - N/A   Overcast
7:16 AM 64.4 °F 59.0 °F 83% 30.03 in 10.0 mi SSW 8.1 mph - N/A   Overcast
7:35 AM 64.4 °F 59.0 °F 83% 30.04 in 10.0 mi SW 6.9 mph - N/A   Overcast
7:55 AM 64.4 °F 59.0 °F 83% 30.04 in 10.0 mi SSW 8.1 mph - N/A   Overcast
8:35 AM 66.2 °F 59.0 °F 78% 30.05 in 10.0 mi SSW 9.2 mph - N/A   Overcast
8:55 AM 66.2 °F 60.8 °F 83% 30.05 in 10.0 mi SSW 9.2 mph - N/A   Overcast
9:15 AM 66.2 °F 60.8 °F 83% 30.06 in 10.0 mi SSW 10.4 mph - N/A   Overcast
9:36 AM 68.0 °F 59.0 °F 73% 30.06 in 10.0 mi SSW 13.8 mph - N/A   Overcast
9:55 AM 68.0 °F 60.8 °F 78% 30.06 in 10.0 mi SSW 12.7 mph - N/A   Overcast
10:15 AM 69.8 °F 59.0 °F 68% 30.06 in 10.0 mi SW 15.0 mph - N/A   Overcast
10:55 AM 71.6 °F 57.2 °F 60% 30.06 in 10.0 mi SW 17.3 mph 21.9 mph N/A   Mostly Cloudy
11:35 AM 73.4 °F 55.4 °F 53% 30.05 in 10.0 mi SW 17.3 mph 23.0 mph N/A   Mostly Cloudy
11:55 AM 71.6 °F 55.4 °F 57% 30.04 in 10.0 mi SW 15.0 mph 20.7 mph N/A   Mostly Cloudy
12:15 PM 71.6 °F 55.4 °F 57% 30.03 in 10.0 mi SW 15.0 mph 20.7 mph N/A   Partly Cloudy
12:35 PM 73.4 °F 55.4 °F 53% 30.02 in 10.0 mi SSW 16.1 mph 20.7 mph N/A   Partly Cloudy
12:56 PM 71.6 °F 55.4 °F 57% 30.02 in 10.0 mi SW 12.7 mph 18.4 mph N/A   Partly Cloudy
1:15 PM 73.4 °F 55.4 °F 53% 30.01 in 10.0 mi SW 13.8 mph 23.0 mph N/A   Clear
1:35 PM 75.2 °F 55.4 °F 50% 30.00 in 10.0 mi SSW 15.0 mph 20.7 mph N/A   Clear
1:56 PM 75.2 °F 55.4 °F 50% 29.99 in 10.0 mi SW 16.1 mph 23.0 mph N/A   Scattered Clouds
2:15 PM 75.2 °F 55.4 °F 50% 29.99 in 10.0 mi SSW 12.7 mph 21.9 mph N/A   Scattered Clouds
2:35 PM 75.2 °F 55.4 °F 50% 29.98 in 10.0 mi SW 16.1 mph 20.7 mph N/A   Partly Cloudy
2:55 PM 75.2 °F 55.4 °F 50% 29.98 in 10.0 mi SW 16.1 mph - N/A   Partly Cloudy
3:15 PM 73.4 °F 57.2 °F 57% 29.98 in 10.0 mi SSW 12.7 mph 19.6 mph N/A   Mostly Cloudy
3:35 PM 73.4 °F 57.2 °F 57% 29.98 in 10.0 mi SSW 12.7 mph 20.7 mph N/A   Mostly Cloudy
3:55 PM 71.6 °F 57.2 °F 60% 29.99 in 10.0 mi SW 15.0 mph 18.4 mph N/A   Mostly Cloudy
4:15 PM 71.6 °F 57.2 °F 60% 29.99 in 10.0 mi SSW 13.8 mph 17.3 mph N/A   Scattered Clouds
4:35 PM 71.6 °F 57.2 °F 60% 29.99 in 10.0 mi South 15.0 mph 18.4 mph N/A   Mostly Cloudy
4:55 PM 69.8 °F 57.2 °F 64% 29.99 in 10.0 mi South 9.2 mph - N/A   Scattered Clouds
5:35 PM 69.8 °F 55.4 °F 60% 30.00 in 10.0 mi SSW 9.2 mph - N/A   Partly Cloudy
5:55 PM 68.0 °F 55.4 °F 64% 30.00 in 10.0 mi South 6.9 mph - N/A   Clear
6:15 PM 66.2 °F 55.4 °F 68% 30.00 in 10.0 mi South 6.9 mph - N/A   Clear
6:35 PM 66.2 °F 57.2 °F 73% 30.00 in 10.0 mi South 8.1 mph - N/A   Clear
7:35 PM 64.4 °F 57.2 °F 77% 30.00 in 10.0 mi South 6.9 mph - N/A   Clear
7:55 PM 64.4 °F 57.2 °F 77% 29.99 in 10.0 mi South 8.1 mph - N/A   Partly Cloudy
8:15 PM 64.4 °F 57.2 °F 77% 29.99 in 10.0 mi South 9.2 mph - N/A   Mostly Cloudy
8:35 PM 64.4 °F 57.2 °F 77% 29.98 in 10.0 mi South 9.2 mph - N/A   Scattered Clouds
8:55 PM 64.4 °F 57.2 °F 77% 29.98 in 10.0 mi South 9.2 mph - N/A   Mostly Cloudy
9:15 PM 64.4 °F 57.2 °F 77% 29.98 in 10.0 mi South 6.9 mph - N/A   Partly Cloudy
9:36 PM 64.4 °F 57.2 °F 77% 29.98 in 10.0 mi South 8.1 mph - N/A   Clear
9:55 PM 64.4 °F 57.2 °F 77% 29.99 in 10.0 mi South 10.4 mph - N/A   Clear
10:15 PM 66.2 °F 57.2 °F 73% 29.98 in 10.0 mi South 12.7 mph 19.6 mph N/A   Clear
10:35 PM 66.2 °F 57.2 °F 73% 29.98 in 10.0 mi South 10.4 mph 18.4 mph N/A   Clear
11:15 PM 66.2 °F 57.2 °F 73% 29.98 in 10.0 mi South 11.5 mph 16.1 mph N/A   Clear
11:35 PM 66.2 °F 57.2 °F 73% 29.98 in 10.0 mi South 16.1 mph 19.6 mph N/A   Clear